Location: Eastlake (historical)
(39.0077°N, 122.6678°W)
Time: 13:11:15
(UTC+00:00)

CZ-4B R/B - Pass Details

Date: 25 November 2020
Orbit: 389 x 457 km, 97.6° (Epoch: 25 January)

Event Time Altitude Azimuth Distance (km) Brightness Sun altitude
Rises 12:55:06 0° 161° (SSE) 2,349 5.4 -24.9°
Reaches altitude 10° 12:57:07 10° 158° (SSE) 1,479 4.3 -24.5°
Enters shadow 12:58:26 23° 153° (SSE) 927 3.3 -24.2°
